GW1757 Weather Reports


time (UTC)temp
F
wind
direction
speed
knots
gust
knots
rain 1hr
in
rain 24hr
in
rain mn
in
humidity
%
barometer
mb
20260505221539 79 119 0.0 0.0 0.00 0.04 0.04 91 1008.1
20260505221033 79 95 0.0 0.0 0.00 0.04 0.04 91 1008.2
20260505220528 79 95 0.0 0.0 0.00 0.04 0.04 91 1008.1
20260505220021 79 93 0.0 0.0 0.00 0.04 0.04 91 1008.2
20260505215516 79 91 0.0 0.0 0.00 0.04 0.04 91 1008.1
20260505215009 79 122 0.0 0.0 0.00 0.04 0.04 91 1008.2
20260505214503 78 135 0.0 0.0 0.00 0.04 0.04 91 1008.1
20260505214217 78 114 0.0 0.0 0.00 0.04 0.04 91 1008.1
20260505213453 78 110 0.0 0.0 0.00 0.04 0.04 91 1008.0
20260505212945 78 118 0.0 0.0 0.00 0.04 0.04 92 1008.0
20260505212657 78 110 0.0 0.0 0.00 0.04 0.04 92 1008.0
20260505212158 78 112 0.0 0.0 0.00 0.04 0.04 92 1007.9
20260505211427 79 136 0.0 0.0 0.00 0.04 0.04 92 1007.9
20260505210922 79 122 0.0 0.0 0.00 0.04 0.04 92 1007.9
20260505210415 79 108 0.0 0.0 0.00 0.04 0.04 92 1007.8
20260505205909 79 106 0.0 0.0 0.00 0.04 0.04 92 1007.8
20260505205403 79 91 0.0 0.0 0.00 0.04 0.04 92 1007.7
20260505205118 78 102 0.0 0.0 0.00 0.04 0.04 92 1007.7
20260505204351 78 97 0.0 0.0 0.00 0.04 0.04 92 1007.6
20260505203845 78 90 0.0 2.6 0.00 0.04 0.04 92 1007.5
20260505203340 78 83 0.0 2.6 0.00 0.04 0.04 92 1007.5
20260505202930 78 92 0.0 0.0 0.01 0.04 0.04 92 1007.5
20260505201836 78 74 0.9 3.5 0.01 0.04 0.04 92 1007.4
20260505201554 78 83 0.9 3.5 0.01 0.04 0.04 92 1007.4
20260505200836 78 114 0.9 3.5 0.01 0.04 0.04 93 1007.4
20260505200333 78 129 0.0 3.5 0.01 0.04 0.04 93 1007.2
20260505195838 78 110 0.9 7.0 0.01 0.04 0.04 92 1007.2
20260505195556 78 129 0.9 7.0 0.01 0.04 0.04 92 1007.1
20260505194833 78 127 1.7 5.2 0.01 0.04 0.04 92 1007.2
20260505194335 78 129 2.6 6.1 0.01 0.04 0.04 92 1007.1
20260505193834 78 108 2.6 6.1 0.01 0.04 0.04 92 1007.1
20260505193331 79 86 2.6 7.8 0.01 0.04 0.04 92 1007.1
20260505192830 79 101 1.7 7.8 0.00 0.03 0.03 91 1007.1
20260505192551 79 91 0.9 3.5 0.00 0.03 0.03 91 1007.0
20260505191831 79 109 2.6 4.3 0.00 0.03 0.03 91 1007.0
20260505191334 79 83 2.6 4.3 0.00 0.03 0.03 91 1007.0
20260505190829 79 50 2.6 7.0 0.00 0.03 0.03 91 1007.0
20260505190329 79 74 3.5 7.8 0.00 0.03 0.03 91 1006.9
20260505185828 79 77 4.3 7.8 0.00 0.03 0.03 91 1006.9
20260505185547 80 106 4.3 7.8 0.00 0.03 0.03 90 1007.0
20260505184829 79 85 4.3 7.8 0.01 0.03 0.03 90 1007.1
20260505184329 80 71 4.3 7.8 0.01 0.03 0.03 90 1007.1
20260505183829 80 68 4.3 7.0 0.03 0.03 0.03 90 1007.1
20260505183329 79 72 3.5 7.0 0.03 0.03 0.03 90 1007.0
20260505182829 79 78 3.5 7.0 0.03 0.03 0.03 90 1007.1
20260505182330 79 87 3.5 7.0 0.03 0.03 0.03 90 1007.2
20260505182049 79 75 3.5 7.0 0.03 0.03 0.03 90 1007.2
20260505181553 79 64 3.5 6.1 0.03 0.03 0.03 91 1007.1
20260505180829 79 79 2.6 5.2 0.03 0.03 0.03 91 1007.2
20260505180548 79 56 2.6 5.2 0.03 0.03 0.03 91 1007.3
20260505175829 79 29 3.5 6.1 0.03 0.03 0.03 91 1007.2
20260505175329 79 33 2.6 7.0 0.03 0.03 0.03 91 1007.2
20260505174829 79 18 3.5 8.7 0.02 0.02 0.02 91 1007.3
20260505174328 79 59 4.3 8.7 0.02 0.02 0.02 91 1007.5
20260505174048 79 55 4.3 7.8 0.00 0.00 0.00 90 1007.6
20260505173316 79 68 3.5 7.0 0.00 0.00 0.00 91 1007.7
20260505172811 80 86 3.5 7.8 0.00 0.00 0.00 90 1007.7
20260505172306 80 78 3.5 10.4 0.00 0.00 0.00 90 1007.8
20260505172028 80 66 1.7 10.4 0.00 0.00 0.00 90 1007.8
20260505171252 80 73 0.9 5.2 0.00 0.00 0.00 90 1007.8
20260505170747 80 31 1.7 4.3 0.00 0.00 0.00 90 1007.9
20260505170240 80 45 1.7 4.3 0.00 0.00 0.00 90 1007.9
20260505165734 80 23 0.9 4.3 0.00 0.00 0.00 90 1007.9
20260505165229 80 56 0.0 0.0 0.00 0.00 0.00 90 1008.1
20260505164725 80 27 0.0 0.0 0.00 0.00 0.00 89 1008.1
20260505164217 80 354 0.0 0.0 0.00 0.00 0.00 89 1008.1
20260505163710 80 349 0.0 0.0 0.00 0.00 0.00 89 1008.2
20260505163429 80 354 0.0 0.0 0.00 0.00 0.00 89 1008.2
20260505162659 80 349 0.0 0.0 0.00 0.00 0.00 89 1008.3
20260505162152 80 348 0.0 0.0 0.00 0.00 0.00 89 1008.3
20260505161646 80 359 0.0 0.0 0.00 0.00 0.00 89 1008.3
20260505161140 80 354 0.0 0.0 0.00 0.00 0.00 89 1008.3
20260505160635 80 349 0.0 0.0 0.00 0.00 0.00 89 1008.3
20260505160128 80 32 0.0 0.0 0.00 0.00 0.00 90 1008.4
20260505153053 80 231 0.0 1.7 0.00 0.00 0.00 90 1008.6
20260505152549 79 228 0.0 0.0 0.00 0.00 0.00 90 1008.6
20260505152041 79 359 0.0 0.9 0.00 0.00 0.00 90 1008.7
20260505151535 79 283 0.9 5.2 0.00 0.00 0.00 90 1008.7
20260505151247 79 244 2.6 5.2 0.00 0.00 0.00 90 1008.7
20260505150523 79 231 1.7 3.5 0.00 0.00 0.00 90 1008.7
20260505140411 80 230 0.9 3.5 0.00 0.00 0.00 89 1008.9
20260505130300 80 217 0.9 4.3 0.00 0.00 0.00 89 1008.2
20260505124741 81 359 0.0 1.7 0.00 0.00 0.00 89 1008.1
20260505124236 80 286 0.9 1.7 0.00 0.00 0.00 89 1007.9
20260505123729 80 285 0.9 1.7 0.00 0.00 0.00 89 1007.9
20260505123223 81 282 0.0 1.7 0.00 0.00 0.00 89 1007.8
20260505122717 81 285 0.0 1.7 0.00 0.00 0.00 89 1007.8
20260505122211 81 359 0.0 0.0 0.00 0.00 0.00 89 1007.7
20260505121705 81 350 0.0 1.7 0.00 0.00 0.00 89 1007.7
20260505121159 81 359 0.9 2.6 0.00 0.00 0.00 89 1007.7
20260505120653 81 354 1.7 2.6 0.00 0.00 0.00 89 1007.6
20260505120147 81 359 1.7 3.5 0.00 0.00 0.00 89 1007.6
20260505115648 81 25 1.7 3.5 0.00 0.00 0.00 89 1007.5
20260505115413 81 12 1.7 2.6 0.00 0.00 0.00 89 1007.5
20260505114653 81 12 1.7 3.5 0.00 0.00 0.00 89 1007.5
20260505114149 81 17 2.6 4.3 0.00 0.00 0.00 89 1007.4
20260505113648 81 18 1.7 4.3 0.00 0.00 0.00 89 1007.5
20260505113147 81 350 1.7 2.6 0.00 0.00 0.00 89 1007.5
20260505112650 81 359 1.7 2.6 0.00 0.00 0.00 89 1007.4
20260505112145 81 359 1.7 2.6 0.00 0.00 0.00 89 1007.5
20260505111645 81 354 1.7 3.5 0.00 0.00 0.00 88 1007.4
20260505111145 81 345 1.7 4.3 0.00 0.00 0.00 88 1007.4
20260505110914 81 21 2.6 5.2 0.00 0.00 0.00 88 1007.4
20260505110145 81 36 2.6 5.2 0.00 0.00 0.00 88 1007.4
20260505102148 82 28 3.5 7.0 0.00 0.00 0.00 86 1007.1
20260505101645 82 41 3.5 7.8 0.00 0.00 0.00 86 1007.2
20260505101409 82 16 3.5 8.7 0.00 0.00 0.00 86 1007.1
20260505100645 82 32 4.3 8.7 0.00 0.00 0.00 85 1006.9
20260505100145 82 25 4.3 10.4 0.00 0.00 0.00 85 1006.9
20260505095645 82 52 3.5 10.4 0.00 0.00 0.00 85 1006.8
20260505095145 83 10 2.6 6.1 0.00 0.00 0.00 85 1006.7
20260505094645 83 73 2.6 7.0 0.00 0.00 0.00 84 1006.6
20260505094144 83 12 2.6 7.0 0.00 0.00 0.00 83 1006.5
20260505093643 83 12 3.5 8.7 0.00 0.00 0.00 83 1006.4
20260505093142 83 348 3.5 8.7 0.00 0.00 0.00 82 1006.4
20260505092642 84 18 2.6 7.8 0.00 0.00 0.00 82 1006.4
20260505092136 84 4 3.5 7.8 0.00 0.00 0.00 82 1006.4
20260505091630 84 359 2.6 7.8 0.00 0.00 0.00 81 1006.3
20260505091352 84 354 3.5 7.8 0.00 0.00 0.00 81 1006.2
20260505090618 84 16 3.5 8.7 0.00 0.00 0.00 81 1006.2
20260505090113 84 328 3.5 8.7 0.00 0.00 0.00 81 1006.2
20260505085606 84 18 3.5 7.8 0.00 0.00 0.00 81 1006.2
20260505085325 83 29 2.6 7.8 0.00 0.00 0.00 82 1006.3
20260505084554 84 29 3.5 8.7 0.00 0.00 0.00 82 1006.3
20260505084048 84 41 4.3 8.7 0.00 0.00 0.00 80 1006.2
20260505083543 84 322 5.2 8.7 0.00 0.00 0.00 80 1006.3
20260505083036 84 33 5.2 8.7 0.00 0.00 0.00 80 1006.2
20260505082530 85 12 4.3 9.6 0.00 0.00 0.00 79 1006.2
20260505082024 85 4 4.3 8.7 0.00 0.00 0.00 80 1006.3
20260505081518 85 349 4.3 8.7 0.00 0.00 0.00 79 1006.2
20260505081012 85 52 4.3 8.7 0.00 0.00 0.00 78 1006.2
20260505080506 85 350 3.5 7.8 0.00 0.00 0.00 78 1006.2
20260505080000 85 333 3.5 9.6 0.00 0.00 0.00 78 1006.2
20260505075454 85 77 4.3 9.6 0.00 0.00 0.00 78 1006.2
20260505075214 85 48 4.3 9.6 0.00 0.00 0.00 80 1006.2
20260505074442 85 83 5.2 10.4 0.00 0.00 0.00 79 1006.2
20260505073936 85 23 5.2 11.3 0.00 0.00 0.00 78 1006.3
20260505073432 85 82 5.2 11.3 0.00 0.00 0.00 78 1006.2
20260505072924 85 26 5.2 9.6 0.00 0.00 0.00 78 1006.4
20260505072418 84 17 6.1 9.6 0.00 0.00 0.00 79 1006.3
20260505071912 84 339 5.2 9.6 0.00 0.00 0.00 76 1006.3
20260505071406 85 63 5.2 9.6 0.00 0.00 0.00 77 1006.3
20260505070900 84 341 5.2 11.3 0.00 0.00 0.00 78 1006.4
20260505070354 84 11 5.2 11.3 0.00 0.00 0.00 78 1006.6
20260505065849 85 27 4.3 10.4 0.00 0.00 0.00 77 1006.5
20260505065342 85 340 3.5 7.8 0.00 0.00 0.00 79 1006.5
20260505064836 85 68 4.3 7.8 0.00 0.00 0.00 81 1006.6
20260505064330 85 15 4.3 7.8 0.00 0.00 0.00 79 1006.7
20260505063824 84 39 4.3 8.7 0.00 0.00 0.00 81 1006.7
20260505063319 84 42 5.2 9.6 0.00 0.00 0.00 80 1006.7
20260505062813 83 16 5.2 9.6 0.00 0.00 0.00 81 1006.7
20260505062311 83 13 4.3 9.6 0.00 0.00 0.00 80 1006.7
20260505062031 83 4 4.3 9.6 0.00 0.00 0.00 82 1006.8
20260505061531 83 48 5.2 11.3 0.00 0.00 0.00 81 1006.8
20260505061032 83 33 4.3 11.3 0.00 0.00 0.00 82 1006.8
20260505060309 83 44 4.3 9.6 0.00 0.00 0.00 82 1006.9
20260505055808 83 347 4.3 10.4 0.00 0.00 0.00 82 1007.0
20260505055309 84 50 4.3 10.4 0.00 0.00 0.00 81 1007.0
20260505054807 84 359 5.2 10.4 0.00 0.00 0.00 81 1007.0
20260505054306 84 10 5.2 10.4 0.00 0.00 0.00 81 1007.1
20260505053807 84 52 5.2 10.4 0.00 0.00 0.00 80 1007.1
20260505053305 84 68 5.2 10.4 0.00 0.00 0.00 81 1007.1
20260505052804 84 23 5.2 11.3 0.00 0.00 0.00 80 1007.1
20260505052305 84 31 5.2 11.3 0.00 0.00 0.00 80 1007.2
20260505051804 84 30 5.2 10.4 0.00 0.00 0.00 81 1007.4
20260505051305 83 359 4.3 10.4 0.00 0.00 0.00 83 1007.4
20260505050805 83 359 5.2 10.4 0.00 0.00 0.00 82 1007.5
20260505050305 83 73 6.1 10.4 0.00 0.00 0.00 82 1007.5
20260505041220 84 8 6.1 12.2 0.00 0.00 0.00 80 1008.0
20260505041205 85 28 5.2 12.2 0.00 0.00 0.00 80 1008.1
20260505040220 85 30 4.3 12.2 0.00 0.00 0.00 79 1008.0
20260505035720 85 359 4.3 10.4 0.00 0.00 0.00 80 1008.1
20260505035220 84 330 6.1 11.3 0.00 0.00 0.00 83 1008.1
20260505034722 83 4 7.0 13.0 0.00 0.00 0.00 82 1008.3
20260505034221 84 354 6.1 13.0 0.00 0.00 0.00 82 1008.2
20260505033720 84 31 5.2 12.2 0.00 0.00 0.00 81 1008.3
20260505033225 84 64 5.2 11.3 0.00 0.00 0.00 81 1008.4
20260505032720 84 23 6.1 11.3 0.00 0.00 0.00 82 1008.3
20260505032221 84 345 7.0 11.3 0.00 0.00 0.00 82 1008.4
20260505031720 83 8 7.8 13.0 0.00 0.00 0.00 83 1008.5
20260505031220 83 359 7.8 13.0 0.00 0.00 0.00 82 1008.6
20260505030721 83 334 7.0 13.0 0.00 0.00 0.00 83 1008.6
20260505030223 83 42 6.1 11.3 0.00 0.00 0.00 82 1008.7
20260505025718 83 8 7.0 10.4 0.00 0.00 0.00 82 1008.7
20260505025441 83 359 6.1 10.4 0.00 0.00 0.00 84 1008.8
20260505024718 83 16 6.1 10.4 0.00 0.00 0.00 83 1008.9
20260505024224 83 354 7.0 12.2 0.00 0.00 0.00 83 1008.8
20260505023718 83 18 7.0 12.2 0.00 0.00 0.00 83 1008.7
20260505023440 83 345 7.0 12.2 0.00 0.00 0.00 83 1008.8
20260505022719 83 24 6.1 11.3 0.00 0.00 0.00 83 1008.8
20260505022218 83 9 5.2 10.4 0.00 0.00 0.00 82 1008.8
20260505021944 83 359 5.2 10.4 0.00 0.00 0.00 83 1008.9
20260505021218 83 8 4.3 10.4 0.00 0.00 0.00 83 1008.9
20260505020718 83 350 4.3 10.4 0.00 0.00 0.00 82 1008.9
20260505020216 83 21 5.2 10.4 0.00 0.00 0.00 84 1008.9
20260505015716 82 4 6.1 10.4 0.00 0.00 0.00 84 1009.0
20260505015216 83 23 4.3 10.4 0.00 0.00 0.00 84 1009.1
20260505014716 83 341 3.5 10.4 0.00 0.00 0.00 86 1009.2
20260505014216 82 25 4.3 7.8 0.00 0.00 0.00 86 1009.1
20260505013716 82 28 4.3 8.7 0.00 0.00 0.00 84 1009.1
20260505013220 82 25 4.3 9.6 0.00 0.00 0.00 85 1009.1
20260505012715 83 45 4.3 9.6 0.00 0.00 0.00 85 1009.1
20260505012209 83 340 4.3 8.7 0.00 0.00 0.00 85 1009.2
20260505011703 83 20 3.5 8.7 0.00 0.00 0.00 83 1009.2
20260505011157 83 28 2.6 8.7 0.00 0.00 0.00 84 1009.2
20260505010651 84 54 0.9 4.3 0.00 0.00 0.00 83 1009.3
20260505010145 83 359 0.9 4.3 0.00 0.00 0.00 84 1009.3
20260505005641 83 192 0.9 4.3 0.00 0.00 0.00 83 1009.3
20260505005132 83 359 0.9 2.6 0.00 0.00 0.00 87 1009.4
20260505004626 82 160 0.0 2.6 0.00 0.00 0.00 87 1009.5
20260505004120 82 359 0.0 3.5 0.00 0.00 0.00 87 1009.5
20260505003616 82 123 0.9 3.5 0.00 0.00 0.00 86 1009.3
20260505003109 82 135 0.9 3.5 0.00 0.00 0.00 85 1009.3
20260505002823 82 112 0.0 2.6 0.00 0.00 0.00 86 1009.4
20260505002058 82 277 0.0 2.6 0.00 0.00 0.00 87 1009.5
20260505001813 82 314 0.0 2.6 0.00 0.00 0.00 87 1009.4
20260505001045 82 283 0.0 0.0 0.00 0.00 0.00 87 1009.5
20260505000539 82 264 0.0 0.0 0.00 0.00 0.00 86 1009.5
20260505000036 82 265 0.0 0.0 0.00 0.00 0.00 87 1009.4
20260504235526 82 161 0.0 0.0 0.00 0.00 0.00 88 1009.4
20260504235020 81 160 0.0 0.0 0.00 0.00 0.00 88 1009.3
20260504234515 81 161 0.0 0.0 0.00 0.00 0.00 88 1009.4
20260504234009 81 162 0.0 0.0 0.00 0.00 0.00 88 1009.4
20260504233504 81 163 0.0 0.0 0.00 0.00 0.00 88 1009.2
20260504233002 81 161 0.0 0.9 0.00 0.00 0.00 87 1009.2
20260504232711 81 162 0.0 0.9 0.00 0.00 0.00 88 1009.2
20260504231945 81 162 0.0 0.0 0.00 0.00 0.00 88 1009.1
20260504231438 81 162 0.0 0.0 0.00 0.00 0.00 88 1009.1
20260504230935 80 160 0.0 0.0 0.00 0.00 0.00 88 1009.0
20260504230909 80 162 0.0 0.0 0.00 0.04 0.00 89 1008.9
20260504225920 79 185 0.0 0.0 0.00 0.07 0.00 90 1009.0
20260504225415 78 185 0.0 0.0 0.00 0.09 0.00 90 1008.9
20260504225134 78 197 0.0 1.7 0.00 0.10 0.00 90 1008.9
20260504224403 78 199 0.0 1.7 0.00 0.13 0.00 90 1008.8
20260504223857 77 241 0.0 1.7 0.00 0.36 0.00 90 1008.8
20260504223351 77 197 0.0 2.6 0.00 0.57 0.00 90 1008.7
20260504222339 77 207 0.0 1.7 0.00 0.57 0.00 91 1008.7
20260504221832 77 226 0.0 0.0 0.00 0.58 0.00 91 1008.7